Location: Grange Rosano
(44.4500°N, 6.9667°E)
Time: 21:20:30
(UTC+00:00)

USA 215 - Pass Details

Date: 26 May 2022
Orbit: 1099 x 1108 km, 123.0° (Epoch: 10 June)

Event Time Altitude Azimuth Distance (km) Brightness Sun altitude
Rises 00:18:06 0° 52° (NE) 3,924 6.9 -23.5°
Reaches altitude 10° 00:20:43 10° 46° (NE) 2,966 6.3 -23.4°
Maximum altitude 00:26:44 41° 339° (NNW) 1,561 4.4 -23.1°
Drops below altitude 10° 00:32:45 10° 273° (W) 2,966 5.4 -22.9°
Sets 00:35:22 0° 266° (W) 3,924 6.0 -22.7°
